{"data":{"norad_id":59085,"intl_designator":"2024-041M","name":"STARLINK-31290","alt_names":[],"object_type":"PAYLOAD","status":"ACTIVE","operator":null,"country":"US","launch_date":"2024-02-29","launch_site_code":"AFETR","launch_vehicle":null,"mission":null,"orbit_class":"UNKNOWN","rcs_meters":null,"size_class":null,"mass_kg":null,"dimensions":null,"purposes":["comms"],"wikipedia_slug":null,"has_3d_model":false,"image_url":null,"decayed_at":null,"tle_current":{"epoch":"2026-09-20T07:50:43.036800Z","epoch_age_seconds":173815,"freshness":"STALE","line1":"1 59085U 24041M   26263.32688700  .00000084  00000+0  12559-4 0  9998","line2":"2 59085  43.0023 277.2319 0000938 274.1376  85.9368 15.27568411144347","mean_motion":15.27568411,"eccentricity":9.38e-5,"inclination_deg":43.0023,"raan_deg":277.2319,"arg_perigee_deg":274.1376,"mean_anomaly_deg":85.9368,"bstar":1.2559e-5,"rev_number":14434,"period_min":94.267463874651,"perigee_km":482.44021538332,"apogee_km":483.727380405,"semimajor_km":6861.2207978942,"source":"CELESTRAK","updated_at":"2026-09-21T09:00:34.035648Z"}}}